contact:dominique.lefevre@mio.osupytheas.fr, maurice.libes@osupytheas.fr, didier.mallarino@osupytheas.fr
Project:EMSO http://www.emso-fr.org/EMSO-France
Depth: 2436.0 m
Title:EMSO Ligure Ouest : Data MII capteur CSTAR
DateTime,Latitude,Longitude,Instrument_Serial,Reference_Counts,Signal_Counts,Corrected_Signal_raw_counts,Calculated_Beam_c_inverse_meters,Internal_thermistor_counts
DateTime,Latitude,Longitude,Instrument_Serial,Reference_Counts,Signal_Counts,Corrected_Signal_raw_counts,Calculated_Beam_c_inverse_meters,Internal_thermistor_counts
2023-11-26T00:01:34,42.805,6.029,CST-1368DR,4101,4357,11257,01.309,553
2023-11-26T00:04:36,42.805,6.029,CST-1368DR,4101,4359,11262,01.307,553
2023-11-26T00:07:38,42.805,6.029,CST-1368DR,4101,4358,11260,01.308,553
2023-11-26T00:10:39,42.805,6.029,CST-1368DR,4101,4357,11258,01.309,553
2023-11-26T00:13:41,42.805,6.029,CST-1368DR,4101,4357,11257,01.309,553
2023-11-26T00:16:42,42.805,6.029,CST-1368DR,4101,4356,11256,01.310,553
2023-11-26T00:19:44,42.805,6.029,CST-1368DR,4101,4357,11259,01.309,553
2023-11-26T00:22:46,42.805,6.029,CST-1368DR,4101,4356,11255,01.310,553
2023-11-26T00:25:47,42.805,6.029,CST-1368DR,4101,4357,11258,01.309,553
2023-11-26T00:28:49,42.805,6.029,CST-1368DR,4101,4357,11258,01.309,553
2023-11-26T00:31:50,42.805,6.029,CST-1368DR,4101,4357,11259,01.309,553
2023-11-26T00:34:52,42.805,6.029,CST-1368DR,4101,4358,11260,01.308,553
2023-11-26T00:37:53,42.805,6.029,CST-1368DR,4100,4358,11264,01.307,553
2023-11-26T00:40:55,42.805,6.029,CST-1368DR,4101,4358,11259,01.309,553
2023-11-26T00:43:57,42.805,6.029,CST-1368DR,4101,4356,11256,01.310,553
2023-11-26T00:46:58,42.805,6.029,CST-1368DR,4101,4353,11246,01.313,553
2023-11-26T00:50:00,42.805,6.029,CST-1368DR,4101,4356,11255,01.310,553
2023-11-26T00:53:01,42.805,6.029,CST-1368DR,4101,4355,11252,01.311,553
2023-11-26T00:56:03,42.805,6.029,CST-1368DR,4100,4358,11264,01.307,553
2023-11-26T00:59:05,42.805,6.029,CST-1368DR,4100,4355,11255,01.310,553
2023-11-26T01:02:06,42.805,6.029,CST-1368DR,4101,4357,11257,01.309,553
2023-11-26T01:05:08,42.805,6.029,CST-1368DR,4101,4358,11260,01.308,553
2023-11-26T01:08:09,42.805,6.029,CST-1368DR,4100,4358,11262,01.307,553
2023-11-26T01:11:11,42.805,6.029,CST-1368DR,4100,4358,11264,01.307,553
2023-11-26T01:14:12,42.805,6.029,CST-1368DR,4100,4358,11263,01.307,553
2023-11-26T01:17:14,42.805,6.029,CST-1368DR,4100,4357,11260,01.308,553
2023-11-26T01:20:16,42.805,6.029,CST-1368DR,4100,4358,11263,01.307,553
2023-11-26T01:23:17,42.805,6.029,CST-1368DR,4101,4358,11261,01.308,553
2023-11-26T01:26:19,42.805,6.029,CST-1368DR,4101,4357,11259,01.309,553
2023-11-26T01:29:20,42.805,6.029,CST-1368DR,4100,4356,11259,01.309,553
2023-11-26T01:32:22,42.805,6.029,CST-1368DR,4100,4355,11256,01.310,553
2023-11-26T01:35:23,42.805,6.029,CST-1368DR,4100,4354,11252,01.311,553
2023-11-26T01:38:25,42.805,6.029,CST-1368DR,4100,4355,11255,01.310,553
2023-11-26T01:41:27,42.805,6.029,CST-1368DR,4100,4356,11257,01.309,553
2023-11-26T01:44:28,42.805,6.029,CST-1368DR,4100,4357,11261,01.308,553
2023-11-26T01:47:30,42.805,6.029,CST-1368DR,4100,4356,11258,01.309,553
2023-11-26T01:50:31,42.805,6.029,CST-1368DR,4100,4355,11255,01.310,553
2023-11-26T01:53:33,42.805,6.029,CST-1368DR,4100,4357,11260,01.308,553
2023-11-26T01:56:34,42.805,6.029,CST-1368DR,4100,4356,11258,01.309,553
2023-11-26T01:59:36,42.805,6.029,CST-1368DR,4100,4356,11257,01.309,553
2023-11-26T02:02:38,42.805,6.029,CST-1368DR,4100,4365,11280,01.301,553
2023-11-26T02:05:39,42.805,6.029,CST-1368DR,4100,4355,11255,01.310,553
2023-11-26T02:08:41,42.805,6.029,CST-1368DR,4100,4358,11263,01.307,553
2023-11-26T02:11:42,42.805,6.029,CST-1368DR,4100,4356,11257,01.309,553
2023-11-26T02:14:44,42.805,6.029,CST-1368DR,4100,4358,11262,01.307,553
2023-11-26T02:17:46,42.805,6.029,CST-1368DR,4100,4357,11261,01.308,553
2023-11-26T02:20:47,42.805,6.029,CST-1368DR,4100,4359,11265,01.306,553
2023-11-26T02:23:49,42.805,6.029,CST-1368DR,4100,4358,11262,01.307,553
2023-11-26T02:26:50,42.805,6.029,CST-1368DR,4100,4357,11261,01.308,553
2023-11-26T02:29:52,42.805,6.029,CST-1368DR,4100,4357,11261,01.308,553
2023-11-26T02:32:53,42.805,6.029,CST-1368DR,4100,4358,11264,01.307,553
2023-11-26T02:35:55,42.805,6.029,CST-1368DR,4100,4349,11240,01.315,553
2023-11-26T02:38:57,42.805,6.029,CST-1368DR,4100,4359,11265,01.306,553
2023-11-26T02:41:58,42.805,6.029,CST-1368DR,4100,4358,11263,01.307,553
2023-11-26T02:45:00,42.805,6.029,CST-1368DR,4100,4358,11263,01.307,553
2023-11-26T02:48:01,42.805,6.029,CST-1368DR,4100,4356,11259,01.309,553
2023-11-26T02:51:03,42.805,6.029,CST-1368DR,4100,4355,11256,01.310,553
2023-11-26T02:54:04,42.805,6.029,CST-1368DR,4100,4357,11260,01.308,553
2023-11-26T02:57:06,42.805,6.029,CST-1368DR,4100,4357,11261,01.308,553
2023-11-26T03:00:08,42.805,6.029,CST-1368DR,4100,4358,11262,01.307,553
2023-11-26T03:03:09,42.805,6.029,CST-1368DR,4100,4355,11256,01.310,553
2023-11-26T03:06:11,42.805,6.029,CST-1368DR,4100,4357,11261,01.308,553
2023-11-26T03:09:12,42.805,6.029,CST-1368DR,4100,4357,11261,01.308,553
2023-11-26T03:12:14,42.805,6.029,CST-1368DR,4100,4358,11263,01.307,553
2023-11-26T03:15:16,42.805,6.029,CST-1368DR,4100,4357,11261,01.308,553
2023-11-26T03:18:17,42.805,6.029,CST-1368DR,4100,4356,11257,01.309,553
2023-11-26T03:21:19,42.805,6.029,CST-1368DR,4100,4355,11256,01.310,553
2023-11-26T03:24:20,42.805,6.029,CST-1368DR,4100,4356,11259,01.309,553
2023-11-26T03:27:22,42.805,6.029,CST-1368DR,4100,4355,11255,01.310,553
2023-11-26T03:30:24,42.805,6.029,CST-1368DR,4100,4355,11256,01.310,553
2023-11-26T03:33:25,42.805,6.029,CST-1368DR,4100,4356,11257,01.309,553
2023-11-26T03:36:27,42.805,6.029,CST-1368DR,4100,4356,11257,01.309,553
2023-11-26T03:39:28,42.805,6.029,CST-1368DR,4100,4356,11257,01.309,553
2023-11-26T03:42:30,42.805,6.029,CST-1368DR,4100,4356,11259,01.309,553
2023-11-26T03:45:31,42.805,6.029,CST-1368DR,4100,4357,11261,01.308,553
2023-11-26T03:48:33,42.805,6.029,CST-1368DR,4100,4358,11262,01.307,553
2023-11-26T03:51:35,42.805,6.029,CST-1368DR,4100,4357,11261,01.308,553
2023-11-26T03:54:36,42.805,6.029,CST-1368DR,4100,4356,11258,01.309,553
2023-11-26T03:57:38,42.805,6.029,CST-1368DR,4100,4357,11261,01.308,553
2023-11-26T04:00:39,42.805,6.029,CST-1368DR,4100,4357,11261,01.308,553
2023-11-26T04:03:41,42.805,6.029,CST-1368DR,4100,4357,11261,01.308,553
2023-11-26T04:06:42,42.805,6.029,CST-1368DR,4100,4355,11254,01.310,553
2023-11-26T04:09:44,42.805,6.029,CST-1368DR,4100,4357,11260,01.308,553
2023-11-26T04:12:46,42.805,6.029,CST-1368DR,4100,4357,11261,01.308,553
2023-11-26T04:15:47,42.805,6.029,CST-1368DR,4100,4357,11261,01.308,553
2023-11-26T04:18:49,42.805,6.029,CST-1368DR,4100,4357,11261,01.308,553
2023-11-26T04:21:50,42.805,6.029,CST-1368DR,4100,4356,11257,01.309,553
2023-11-26T04:24:52,42.805,6.029,CST-1368DR,4100,4357,11261,01.308,553
2023-11-26T04:27:54,42.805,6.029,CST-1368DR,4100,4357,11260,01.308,553
2023-11-26T04:30:55,42.805,6.029,CST-1368DR,4100,4357,11260,01.308,553
2023-11-26T04:33:57,42.805,6.029,CST-1368DR,4100,4355,11256,01.310,553
2023-11-26T04:36:58,42.805,6.029,CST-1368DR,4100,4356,11258,01.309,553
2023-11-26T04:40:00,42.805,6.029,CST-1368DR,4100,4353,11251,01.311,553
2023-11-26T04:43:01,42.805,6.029,CST-1368DR,4100,4356,11257,01.309,553
2023-11-26T04:46:03,42.805,6.029,CST-1368DR,4100,4353,11249,01.312,553
2023-11-26T04:49:05,42.805,6.029,CST-1368DR,4100,4356,11257,01.309,553
2023-11-26T04:52:06,42.805,6.029,CST-1368DR,4100,4357,11261,01.308,553
2023-11-26T04:55:08,42.805,6.029,CST-1368DR,4100,4355,11256,01.310,553
2023-11-26T04:58:09,42.805,6.029,CST-1368DR,4100,4356,11257,01.309,553
2023-11-26T05:01:11,42.805,6.029,CST-1368DR,4100,4354,11252,01.311,553
2023-11-26T05:04:13,42.805,6.029,CST-1368DR,4100,4356,11258,01.309,553
2023-11-26T05:07:14,42.805,6.029,CST-1368DR,4100,4356,11257,01.309,553
2023-11-26T05:10:16,42.805,6.029,CST-1368DR,4100,4355,11256,01.310,553
2023-11-26T05:13:17,42.805,6.029,CST-1368DR,4100,4354,11252,01.311,553
2023-11-26T05:16:19,42.805,6.029,CST-1368DR,4100,4355,11254,01.310,553
2023-11-26T05:19:20,42.805,6.029,CST-1368DR,4100,4354,11252,01.311,553
2023-11-26T05:22:22,42.805,6.029,CST-1368DR,4100,4352,11247,01.313,553
2023-11-26T05:25:24,42.805,6.029,CST-1368DR,4100,4354,11254,01.310,553
2023-11-26T05:28:25,42.805,6.029,CST-1368DR,4100,4355,11255,01.310,553
2023-11-26T05:31:29,42.805,6.029,CST-1368DR,4100,4354,11252,01.311,553
2023-11-26T05:34:31,42.805,6.029,CST-1368DR,4100,4355,11255,01.310,553
2023-11-26T05:37:32,42.805,6.029,CST-1368DR,4100,4355,11256,01.310,553
2023-11-26T05:40:34,42.805,6.029,CST-1368DR,4100,4354,11252,01.311,553
2023-11-26T05:43:36,42.805,6.029,CST-1368DR,4100,4356,11257,01.309,553
2023-11-26T05:46:37,42.805,6.029,CST-1368DR,4100,4356,11257,01.309,553
2023-11-26T05:49:39,42.805,6.029,CST-1368DR,4100,4355,11254,01.310,553
2023-11-26T05:52:40,42.805,6.029,CST-1368DR,4100,4354,11253,01.311,553
2023-11-26T05:55:42,42.805,6.029,CST-1368DR,4100,4356,11257,01.309,553
2023-11-26T05:58:43,42.805,6.029,CST-1368DR,4100,4353,11251,01.311,553
2023-11-26T06:01:45,42.805,6.029,CST-1368DR,4100,4353,11251,01.311,553
2023-11-26T06:04:47,42.805,6.029,CST-1368DR,4100,4355,11255,01.310,553
2023-11-26T06:07:48,42.805,6.029,CST-1368DR,4100,4354,11254,01.310,553
2023-11-26T06:10:50,42.805,6.029,CST-1368DR,4100,4356,11257,01.309,553
2023-11-26T06:13:51,42.805,6.029,CST-1368DR,4100,4354,11252,01.311,553
2023-11-26T06:16:53,42.805,6.029,CST-1368DR,4100,4354,11253,01.311,553
2023-11-26T06:19:55,42.805,6.029,CST-1368DR,4100,4356,11257,01.309,553
2023-11-26T06:22:56,42.805,6.029,CST-1368DR,4100,4356,11257,01.309,553
2023-11-26T06:25:58,42.805,6.029,CST-1368DR,4100,4349,11239,01.316,553
2023-11-26T06:28:59,42.805,6.029,CST-1368DR,4100,4354,11254,01.310,553
2023-11-26T06:32:01,42.805,6.029,CST-1368DR,4100,4355,11254,01.310,553
2023-11-26T06:35:02,42.805,6.029,CST-1368DR,4100,4355,11255,01.310,553
2023-11-26T06:38:04,42.805,6.029,CST-1368DR,4100,4354,11252,01.311,553
2023-11-26T06:41:06,42.805,6.029,CST-1368DR,4100,4352,11248,01.312,553
2023-11-26T06:44:07,42.805,6.029,CST-1368DR,4100,4355,11254,01.310,553
2023-11-26T06:47:09,42.805,6.029,CST-1368DR,4100,4351,11246,01.313,553
2023-11-26T06:50:10,42.805,6.029,CST-1368DR,4100,4353,11251,01.311,553
2023-11-26T06:53:12,42.805,6.029,CST-1368DR,4100,4352,11248,01.312,553
2023-11-26T06:56:13,42.805,6.029,CST-1368DR,4100,4355,11254,01.310,553
2023-11-26T06:59:15,42.805,6.029,CST-1368DR,4100,4355,11255,01.310,553
2023-11-26T07:02:17,42.805,6.029,CST-1368DR,4100,4353,11249,01.312,553
2023-11-26T07:05:18,42.805,6.029,CST-1368DR,4100,4353,11250,01.312,553
2023-11-26T07:08:20,42.805,6.029,CST-1368DR,4100,4354,11252,01.311,553
2023-11-26T07:11:21,42.805,6.029,CST-1368DR,4100,4355,11254,01.310,553
2023-11-26T07:14:23,42.805,6.029,CST-1368DR,4100,4354,11252,01.311,553
2023-11-26T07:17:24,42.805,6.029,CST-1368DR,4100,4353,11250,01.312,553
2023-11-26T07:20:26,42.805,6.029,CST-1368DR,4100,4355,11256,01.310,553
2023-11-26T07:23:28,42.805,6.029,CST-1368DR,4100,4354,11254,01.310,553
2023-11-26T07:26:29,42.805,6.029,CST-1368DR,4100,4352,11248,01.312,553
2023-11-26T07:29:31,42.805,6.029,CST-1368DR,4100,4355,11256,01.310,553
2023-11-26T07:32:33,42.805,6.029,CST-1368DR,4100,4354,11252,01.311,553
2023-11-26T07:35:34,42.805,6.029,CST-1368DR,4100,4356,11257,01.309,553
2023-11-26T07:38:36,42.805,6.029,CST-1368DR,4100,4356,11258,01.309,553
2023-11-26T07:41:37,42.805,6.029,CST-1368DR,4100,4356,11257,01.309,553
2023-11-26T07:44:39,42.805,6.029,CST-1368DR,4100,4356,11258,01.309,553
2023-11-26T07:47:40,42.805,6.029,CST-1368DR,4100,4356,11257,01.309,553
2023-11-26T07:50:42,42.805,6.029,CST-1368DR,4100,4356,11258,01.309,553
2023-11-26T07:53:44,42.805,6.029,CST-1368DR,4100,4357,11260,01.308,553
2023-11-26T07:56:45,42.805,6.029,CST-1368DR,4100,4352,11248,01.312,553
2023-11-26T07:59:47,42.805,6.029,CST-1368DR,4100,4354,11254,01.310,553
2023-11-26T08:02:48,42.805,6.029,CST-1368DR,4100,4354,11252,01.311,553
2023-11-26T08:05:50,42.805,6.029,CST-1368DR,4100,4354,11253,01.311,553
2023-11-26T08:08:51,42.805,6.029,CST-1368DR,4100,4356,11259,01.309,553
2023-11-26T08:11:53,42.805,6.029,CST-1368DR,4100,4356,11258,01.309,553
2023-11-26T08:14:55,42.805,6.029,CST-1368DR,4100,4355,11256,01.310,553
2023-11-26T08:17:56,42.805,6.029,CST-1368DR,4100,4356,11258,01.309,553
2023-11-26T08:20:58,42.805,6.029,CST-1368DR,4100,4355,11256,01.310,553
2023-11-26T08:23:59,42.805,6.029,CST-1368DR,4100,4354,11252,01.311,553
2023-11-26T08:27:01,42.805,6.029,CST-1368DR,4100,4355,11256,01.310,553
2023-11-26T08:30:03,42.805,6.029,CST-1368DR,4100,4355,11256,01.310,553
2023-11-26T08:33:04,42.805,6.029,CST-1368DR,4100,4355,11254,01.310,553
2023-11-26T08:36:06,42.805,6.029,CST-1368DR,4100,4352,11248,01.312,553
2023-11-26T08:39:07,42.805,6.029,CST-1368DR,4100,4355,11255,01.310,553
2023-11-26T08:42:09,42.805,6.029,CST-1368DR,4100,4355,11256,01.310,553
2023-11-26T08:45:10,42.805,6.029,CST-1368DR,4100,4356,11257,01.309,553
2023-11-26T08:48:12,42.805,6.029,CST-1368DR,4100,4353,11250,01.312,553
2023-11-26T08:51:14,42.805,6.029,CST-1368DR,4100,4356,11259,01.309,553
2023-11-26T08:54:15,42.805,6.029,CST-1368DR,4100,4356,11257,01.309,553
2023-11-26T08:57:17,42.805,6.029,CST-1368DR,4100,4355,11254,01.310,553
2023-11-26T09:00:18,42.805,6.029,CST-1368DR,4100,4357,11261,01.308,553
2023-11-26T09:03:20,42.805,6.029,CST-1368DR,4100,4355,11255,01.310,553
2023-11-26T09:06:21,42.805,6.029,CST-1368DR,4100,4356,11257,01.309,553
2023-11-26T09:09:23,42.805,6.029,CST-1368DR,4100,4355,11256,01.310,553
2023-11-26T09:12:25,42.805,6.029,CST-1368DR,4100,4355,11255,01.310,553
2023-11-26T09:15:26,42.805,6.029,CST-1368DR,4100,4355,11254,01.310,553
2023-11-26T09:18:28,42.805,6.029,CST-1368DR,4100,4355,11256,01.310,553
2023-11-26T09:21:29,42.805,6.029,CST-1368DR,4100,4355,11255,01.310,553
2023-11-26T09:24:31,42.805,6.029,CST-1368DR,4100,4354,11253,01.311,553
2023-11-26T09:27:33,42.805,6.029,CST-1368DR,4100,4356,11259,01.309,553
2023-11-26T09:30:36,42.805,6.029,CST-1368DR,4100,4356,11259,01.309,553
2023-11-26T09:33:37,42.805,6.029,CST-1368DR,4100,4353,11250,01.312,553
2023-11-26T09:36:39,42.805,6.029,CST-1368DR,4100,4356,11258,01.309,553
2023-11-26T09:39:40,42.805,6.029,CST-1368DR,4100,4355,11256,01.310,553
2023-11-26T09:42:42,42.805,6.029,CST-1368DR,4100,4356,11259,01.309,553
2023-11-26T09:45:44,42.805,6.029,CST-1368DR,4100,4357,11260,01.308,553
2023-11-26T09:48:45,42.805,6.029,CST-1368DR,4100,4352,11247,01.313,552
2023-11-26T09:51:47,42.805,6.029,CST-1368DR,4100,4356,11257,01.309,553
2023-11-26T09:54:48,42.805,6.029,CST-1368DR,4100,4355,11254,01.310,553
2023-11-26T09:57:50,42.805,6.029,CST-1368DR,4100,4356,11258,01.309,553
2023-11-26T10:00:51,42.805,6.029,CST-1368DR,4100,4355,11255,01.310,553
2023-11-26T10:03:53,42.805,6.029,CST-1368DR,4100,4354,11253,01.311,553
2023-11-26T10:06:55,42.805,6.029,CST-1368DR,4100,4355,11256,01.310,553
2023-11-26T10:09:56,42.805,6.029,CST-1368DR,4100,4355,11256,01.310,553
2023-11-26T10:12:58,42.805,6.029,CST-1368DR,4100,4356,11258,01.309,553
2023-11-26T10:15:59,42.805,6.029,CST-1368DR,4100,4356,11257,01.309,553
2023-11-26T10:19:01,42.805,6.029,CST-1368DR,4100,4355,11255,01.310,552
2023-11-26T10:22:02,42.805,6.029,CST-1368DR,4100,4356,11257,01.309,553
2023-11-26T10:25:04,42.805,6.029,CST-1368DR,4100,4357,11261,01.308,553
2023-11-26T10:28:06,42.805,6.029,CST-1368DR,4100,4354,11252,01.311,553
2023-11-26T10:31:07,42.805,6.029,CST-1368DR,4100,4357,11260,01.308,553
2023-11-26T10:34:09,42.805,6.029,CST-1368DR,4100,4356,11259,01.309,553
2023-11-26T10:37:10,42.805,6.029,CST-1368DR,4100,4358,11262,01.307,553
2023-11-26T10:40:12,42.805,6.029,CST-1368DR,4100,4356,11257,01.309,553
2023-11-26T10:43:14,42.805,6.029,CST-1368DR,4100,4355,11254,01.310,553
2023-11-26T10:46:15,42.805,6.029,CST-1368DR,4100,4357,11261,01.308,553
2023-11-26T10:49:17,42.805,6.029,CST-1368DR,4100,4356,11259,01.309,553
2023-11-26T10:52:18,42.805,6.029,CST-1368DR,4100,4353,11251,01.311,553
2023-11-26T10:55:20,42.805,6.029,CST-1368DR,4100,4350,11243,01.314,553
2023-11-26T10:58:21,42.805,6.029,CST-1368DR,4100,4355,11256,01.310,553
2023-11-26T11:01:23,42.805,6.029,CST-1368DR,4100,4355,11256,01.310,553
2023-11-26T11:04:25,42.805,6.029,CST-1368DR,4100,4356,11257,01.309,553
2023-11-26T11:07:26,42.805,6.029,CST-1368DR,4100,4355,11254,01.310,553
2023-11-26T11:10:28,42.805,6.029,CST-1368DR,4100,4356,11257,01.309,553
2023-11-26T11:13:29,42.805,6.029,CST-1368DR,4100,4353,11250,01.312,553
2023-11-26T11:16:31,42.805,6.029,CST-1368DR,4100,4357,11261,01.308,553
2023-11-26T11:19:32,42.805,6.029,CST-1368DR,4100,4356,11258,01.309,553
2023-11-26T11:22:34,42.805,6.029,CST-1368DR,4100,4357,11261,01.308,553
2023-11-26T11:25:36,42.805,6.029,CST-1368DR,4100,4352,11247,01.313,553
2023-11-26T11:28:37,42.805,6.029,CST-1368DR,4100,4357,11260,01.308,553
2023-11-26T11:31:39,42.805,6.029,CST-1368DR,4100,4357,11261,01.308,553
2023-11-26T11:34:41,42.805,6.029,CST-1368DR,4100,4358,11263,01.307,553
2023-11-26T11:37:42,42.805,6.029,CST-1368DR,4100,4358,11263,01.307,553
2023-11-26T11:40:44,42.805,6.029,CST-1368DR,4100,4353,11250,01.312,553
2023-11-26T11:43:45,42.805,6.029,CST-1368DR,4100,4360,11269,01.305,553
2023-11-26T11:46:47,42.805,6.029,CST-1368DR,4100,4353,11250,01.312,553
2023-11-26T11:49:48,42.805,6.029,CST-1368DR,4100,4355,11256,01.310,553
2023-11-26T11:52:50,42.805,6.029,CST-1368DR,4100,4355,11256,01.310,553
2023-11-26T11:55:52,42.805,6.029,CST-1368DR,4100,4356,11258,01.309,553
2023-11-26T11:58:53,42.805,6.029,CST-1368DR,4100,4353,11251,01.311,553
2023-11-26T12:01:55,42.805,6.029,CST-1368DR,4100,4349,11241,01.315,553
2023-11-26T12:04:56,42.805,6.029,CST-1368DR,4100,4357,11261,01.308,553
2023-11-26T12:07:58,42.805,6.029,CST-1368DR,4100,4356,11257,01.309,553
2023-11-26T12:10:59,42.805,6.029,CST-1368DR,4100,4356,11257,01.309,553
2023-11-26T12:14:01,42.805,6.029,CST-1368DR,4100,4356,11259,01.309,553
2023-11-26T12:17:03,42.805,6.029,CST-1368DR,4100,4358,11262,01.307,553
2023-11-26T12:20:04,42.805,6.029,CST-1368DR,4100,4357,11261,01.308,553
2023-11-26T12:23:06,42.805,6.029,CST-1368DR,4100,4356,11257,01.309,552
2023-11-26T12:26:07,42.805,6.029,CST-1368DR,4100,4356,11257,01.309,553
2023-11-26T12:29:09,42.805,6.029,CST-1368DR,4100,4356,11257,01.309,553
2023-11-26T12:32:10,42.805,6.029,CST-1368DR,4100,4354,11253,01.311,553
2023-11-26T12:35:12,42.805,6.029,CST-1368DR,4100,4353,11251,01.311,553
2023-11-26T12:38:14,42.805,6.029,CST-1368DR,4100,4356,11258,01.309,553
2023-11-26T12:41:15,42.805,6.029,CST-1368DR,4100,4357,11260,01.308,553
2023-11-26T12:44:17,42.805,6.029,CST-1368DR,4100,4356,11259,01.309,553
2023-11-26T12:47:18,42.805,6.029,CST-1368DR,4100,4357,11261,01.308,553
2023-11-26T12:50:20,42.805,6.029,CST-1368DR,4100,4356,11258,01.309,553
2023-11-26T12:53:22,42.805,6.029,CST-1368DR,4100,4382,11325,01.285,553
2023-11-26T12:56:23,42.805,6.029,CST-1368DR,4100,4382,11325,01.285,553
2023-11-26T12:59:25,42.805,6.029,CST-1368DR,4100,4382,11325,01.285,553
2023-11-26T13:02:26,42.805,6.029,CST-1368DR,4100,4382,11324,01.285,553
2023-11-26T13:05:28,42.805,6.029,CST-1368DR,4100,4382,11325,01.285,553
2023-11-26T13:08:29,42.805,6.029,CST-1368DR,4100,4382,11324,01.285,553
2023-11-26T13:11:31,42.805,6.029,CST-1368DR,4100,4382,11325,01.285,553
2023-11-26T13:14:33,42.805,6.029,CST-1368DR,4100,4381,11322,01.286,553
2023-11-26T13:17:34,42.805,6.029,CST-1368DR,4100,4381,11322,01.286,553
2023-11-26T13:20:36,42.805,6.029,CST-1368DR,4100,4381,11323,01.286,553
2023-11-26T13:23:37,42.805,6.029,CST-1368DR,4100,4382,11325,01.285,553
2023-11-26T13:26:39,42.805,6.029,CST-1368DR,4100,4381,11323,01.286,553
2023-11-26T13:29:41,42.805,6.029,CST-1368DR,4100,4383,11327,01.284,553
2023-11-26T13:32:42,42.805,6.029,CST-1368DR,4100,4382,11325,01.285,553
2023-11-26T13:35:44,42.805,6.029,CST-1368DR,4100,4382,11325,01.285,553
2023-11-26T13:38:45,42.805,6.029,CST-1368DR,4100,4381,11323,01.286,553
2023-11-26T13:41:47,42.805,6.029,CST-1368DR,4100,4382,11325,01.285,553
2023-11-26T13:44:49,42.805,6.029,CST-1368DR,4100,4383,11327,01.284,553
2023-11-26T13:47:50,42.805,6.029,CST-1368DR,4100,4382,11325,01.285,553
2023-11-26T13:50:52,42.805,6.029,CST-1368DR,4100,4381,11323,01.286,553
2023-11-26T13:53:53,42.805,6.029,CST-1368DR,4100,4383,11327,01.284,553
2023-11-26T13:56:55,42.805,6.029,CST-1368DR,4100,4382,11325,01.285,552
2023-11-26T13:59:56,42.805,6.029,CST-1368DR,4100,4382,11326,01.285,553
2023-11-26T14:02:58,42.805,6.029,CST-1368DR,4100,4381,11323,01.286,553
2023-11-26T14:06:00,42.805,6.029,CST-1368DR,4100,4381,11323,01.286,553
2023-11-26T14:09:01,42.805,6.029,CST-1368DR,4100,4382,11324,01.285,553
2023-11-26T14:12:03,42.805,6.029,CST-1368DR,4100,4382,11324,01.285,553
2023-11-26T14:15:04,42.805,6.029,CST-1368DR,4100,4382,11325,01.285,553
2023-11-26T14:18:06,42.805,6.029,CST-1368DR,4100,4381,11323,01.286,553
2023-11-26T14:21:08,42.805,6.029,CST-1368DR,4100,4382,11325,01.285,553
2023-11-26T14:24:09,42.805,6.029,CST-1368DR,4100,4382,11324,01.285,553
2023-11-26T14:27:11,42.805,6.029,CST-1368DR,4100,4382,11325,01.285,553
2023-11-26T14:30:12,42.805,6.029,CST-1368DR,4100,4382,11325,01.285,553
2023-11-26T14:33:14,42.805,6.029,CST-1368DR,4100,4382,11325,01.285,553
2023-11-26T14:36:15,42.805,6.029,CST-1368DR,4100,4382,11324,01.285,553
2023-11-26T14:39:17,42.805,6.029,CST-1368DR,4100,4381,11323,01.286,553
2023-11-26T14:42:19,42.805,6.029,CST-1368DR,4100,4382,11325,01.285,553
2023-11-26T14:45:20,42.805,6.029,CST-1368DR,4100,4382,11324,01.285,553
2023-11-26T14:48:22,42.805,6.029,CST-1368DR,4100,4381,11323,01.286,553
2023-11-26T14:51:23,42.805,6.029,CST-1368DR,4100,4382,11324,01.285,553
2023-11-26T14:54:25,42.805,6.029,CST-1368DR,4100,4381,11322,01.286,553
2023-11-26T14:57:26,42.805,6.029,CST-1368DR,4100,4381,11322,01.286,553
2023-11-26T15:00:28,42.805,6.029,CST-1368DR,4100,4382,11325,01.285,553
2023-11-26T15:03:30,42.805,6.029,CST-1368DR,4100,4382,11325,01.285,553
2023-11-26T15:06:31,42.805,6.029,CST-1368DR,4100,4381,11323,01.286,553
2023-11-26T15:09:33,42.805,6.029,CST-1368DR,4100,4382,11326,01.285,553
2023-11-26T15:12:34,42.805,6.029,CST-1368DR,4100,4382,11325,01.285,553
2023-11-26T15:15:36,42.805,6.029,CST-1368DR,4100,4382,11326,01.285,553
2023-11-26T15:18:38,42.805,6.029,CST-1368DR,4100,4381,11323,01.286,553
2023-11-26T15:21:39,42.805,6.029,CST-1368DR,4100,4382,11324,01.285,553
2023-11-26T15:24:41,42.805,6.029,CST-1368DR,4100,4382,11325,01.285,553
2023-11-26T15:27:42,42.805,6.029,CST-1368DR,4100,4382,11326,01.285,553
2023-11-26T15:30:44,42.805,6.029,CST-1368DR,4100,4382,11324,01.285,553
2023-11-26T15:33:45,42.805,6.029,CST-1368DR,4100,4381,11323,01.286,553
2023-11-26T15:36:47,42.805,6.029,CST-1368DR,4100,4383,11327,01.284,553
2023-11-26T15:39:49,42.805,6.029,CST-1368DR,4100,4383,11327,01.284,553
2023-11-26T15:42:50,42.805,6.029,CST-1368DR,4100,4382,11325,01.285,553
2023-11-26T15:45:52,42.805,6.029,CST-1368DR,4100,4381,11323,01.286,553
2023-11-26T15:48:53,42.805,6.029,CST-1368DR,4100,4382,11326,01.285,553
2023-11-26T15:51:55,42.805,6.029,CST-1368DR,4100,4382,11325,01.285,553
2023-11-26T15:54:56,42.805,6.029,CST-1368DR,4100,4380,11319,01.287,552
2023-11-26T15:57:58,42.805,6.029,CST-1368DR,4100,4382,11325,01.285,553
2023-11-26T16:01:00,42.805,6.029,CST-1368DR,4100,4382,11325,01.285,553
2023-11-26T16:04:01,42.805,6.029,CST-1368DR,4100,4382,11324,01.285,553
2023-11-26T16:07:03,42.805,6.029,CST-1368DR,4100,4381,11323,01.286,553
2023-11-26T16:10:04,42.805,6.029,CST-1368DR,4100,4382,11324,01.285,553
2023-11-26T16:13:06,42.805,6.029,CST-1368DR,4100,4383,11327,01.284,553
2023-11-26T16:16:08,42.805,6.029,CST-1368DR,4100,4381,11323,01.286,553
2023-11-26T16:19:09,42.805,6.029,CST-1368DR,4100,4382,11325,01.285,553
2023-11-26T16:22:11,42.805,6.029,CST-1368DR,4100,4382,11326,01.285,553
2023-11-26T16:25:12,42.805,6.029,CST-1368DR,4100,4382,11326,01.285,553
2023-11-26T16:28:14,42.805,6.029,CST-1368DR,4100,4382,11325,01.285,552
2023-11-26T16:31:15,42.805,6.029,CST-1368DR,4100,4382,11325,01.285,553
2023-11-26T16:34:17,42.805,6.029,CST-1368DR,4100,4382,11326,01.285,553
2023-11-26T16:37:19,42.805,6.029,CST-1368DR,4100,4382,11324,01.285,553